• In Czech Republic
  • List of Countries
  • For 7 days
  • Water Temperature
  • Satellite Maps
  • Weather Map
  • Weather Widgets
  • user-avatar
    Login

    Hourly Weather Bolshaya Vedren

    Today, 21 September, Friday

    Time Temperature Precipitation Wind Pressure Humidity
    00:00 +18°C° 0 mm 1 mps 750 mmHg 89%
    01:00 +18°C° 0 mm 1 mps 750 mmHg 90%
    02:00 +16°C° 0 mm 2 mps 750 mmHg 91%
    03:00 +16°C° 0 mm 2 mps 750 mmHg 92%
    04:00 +16°C° 0 mm 2 mps 750 mmHg 92%
    05:00 +16°C° 0 mm 2 mps 750 mmHg 93%
    06:00 +17°C° 0 mm 2 mps 750 mmHg 89%
    07:00 +18°C° 0 mm 2 mps 750 mmHg 85%
    08:00 +19°C° 0 mm 2 mps 751 mmHg 80%
    09:00 +21°C° 0 mm 3 mps 750 mmHg 74%
    10:00 +22°C° 0 mm 3 mps 750 mmHg 68%
    11:00 +25°C° 0 mm 3 mps 750 mmHg 62%
    12:00 +26°C° 0 mm 3 mps 750 mmHg 59%
    13:00 +26°C° 0 mm 4 mps 750 mmHg 55%
    14:00 +28°C° 0 mm 3 mps 750 mmHg 52%
    15:00 +27°C° 0.1 mm 3 mps 749 mmHg 56%
    16:00 +26°C° 0.1 mm 3 mps 749 mmHg 60%
    17:00 +25°C° 0.1 mm 3 mps 749 mmHg 64%
    18:00 +22°C° 0 mm 3 mps 748 mmHg 66%
    19:00 +20°C° 0 mm 3 mps 748 mmHg 69%
    20:00 +19°C° 0 mm 3 mps 748 mmHg 72%
    21:00 +19°C° 0 mm 4 mps 747 mmHg 71%
    22:00 +19°C° 0 mm 4 mps 747 mmHg 70%
    23:00 +19°C° 0 mm 4 mps 747 mmHg 69%

    Tomorrow, 22 September, Saturday

    Time Temperature Precipitation Wind Pressure Humidity
    00:00 +17°C° 0 mm 5 mps 747 mmHg 69%
    01:00 +17°C° 0 mm 5 mps 746 mmHg 69%
    02:00 +17°C° 0 mm 5 mps 746 mmHg 70%
    03:00 +17°C° 0 mm 5 mps 745 mmHg 69%
    04:00 +16°C° 0 mm 5 mps 745 mmHg 69%
    05:00 +16°C° 0 mm 5 mps 744 mmHg 68%
    06:00 +17°C° 0 mm 6 mps 744 mmHg 67%
    07:00 +17°C° 0 mm 6 mps 744 mmHg 66%
    08:00 +19°C° 0 mm 6 mps 744 mmHg 65%
    09:00 +19°C° 0 mm 6 mps 744 mmHg 63%
    10:00 +20°C° 0 mm 6 mps 744 mmHg 62%
    11:00 +21°C° 0 mm 6 mps 744 mmHg 60%
    12:00 +19°C° 0.2 mm 5 mps 745 mmHg 67%
    13:00 +15°C° 0.2 mm 5 mps 745 mmHg 75%
    14:00 +13°C° 0.2 mm 4 mps 745 mmHg 82%
    15:00 +12°C° 0.5 mm 4 mps 745 mmHg 84%
    16:00 +12°C° 0.5 mm 3 mps 745 mmHg 87%
    17:00 +12°C° 0.5 mm 3 mps 746 mmHg 89%
    18:00 +11°C° 0.6 mm 3 mps 746 mmHg 90%
    19:00 +11°C° 0.6 mm 3 mps 746 mmHg 90%
    20:00 +11°C° 0.6 mm 3 mps 746 mmHg 90%
    21:00 +11°C° 0.2 mm 3 mps 746 mmHg 89%
    22:00 +11°C° 0.2 mm 3 mps 746 mmHg 89%
    23:00 +10°C° 0.2 mm 3 mps 746 mmHg 88%

    Day after tomorrow, 23 September, Sunday

    Time Temperature Precipitation Wind Pressure Humidity
    00:00 +10°C° 0 mm 3 mps 746 mmHg 90%
    01:00 +9°C° 0 mm 3 mps 746 mmHg 91%
    02:00 +9°C° 0 mm 3 mps 746 mmHg 93%
    03:00 +8°C° 0 mm 3 mps 745 mmHg 93%
    04:00 +8°C° 0 mm 3 mps 745 mmHg 94%
    05:00 +7°C° 0 mm 3 mps 745 mmHg 95%
    06:00 +8°C° 0 mm 3 mps 745 mmHg 91%
    07:00 +8°C° 0 mm 4 mps 745 mmHg 88%
    08:00 +10°C° 0 mm 4 mps 745 mmHg 85%
    09:00 +10°C° 0 mm 5 mps 745 mmHg 78%
    10:00 +12°C° 0 mm 5 mps 744 mmHg 71%
    11:00 +14°C° 0 mm 6 mps 744 mmHg 64%
    12:00 +14°C° 0.1 mm 6 mps 744 mmHg 60%
    13:00 +15°C° 0.1 mm 6 mps 744 mmHg 56%
    14:00 +15°C° 0.1 mm 6 mps 744 mmHg 52%
    15:00 +14°C° 0 mm 5 mps 744 mmHg 56%
    16:00 +13°C° 0 mm 5 mps 744 mmHg 60%
    17:00 +13°C° 0 mm 4 mps 744 mmHg 64%
    18:00 +11°C° 0 mm 3 mps 744 mmHg 69%
    19:00 +10°C° 0 mm 3 mps 744 mmHg 73%
    20:00 +9°C° 0 mm 3 mps 744 mmHg 77%
    21:00 +9°C° 0 mm 3 mps 744 mmHg 79%
    22:00 +8°C° 0 mm 3 mps 744 mmHg 80%
    23:00 +8°C° 0 mm 3 mps 744 mmHg 81%

    24 September, Monday

    Time Temperature Precipitation Wind Pressure Humidity
    00:00 +8°C° 0 mm 3 mps 743 mmHg 83%
    01:00 +7°C° 0 mm 3 mps 743 mmHg 85%
    02:00 +7°C° 0 mm 3 mps 743 mmHg 87%
    03:00 +7°C° 0 mm 3 mps 742 mmHg 87%
    04:00 +7°C° 0 mm 2 mps 742 mmHg 87%
    05:00 +7°C° 0 mm 2 mps 741 mmHg 87%
    06:00 +8°C° 0.4 mm 3 mps 741 mmHg 87%
    07:00 +8°C° 0.4 mm 3 mps 740 mmHg 88%
    08:00 +9°C° 0.4 mm 3 mps 739 mmHg 88%
    09:00 +7°C° 2 mm 4 mps 738 mmHg 90%
    10:00 +7°C° 2 mm 5 mps 737 mmHg 91%
    11:00 +7°C° 2 mm 5 mps 736 mmHg 93%
    12:00 +7°C° 3.3 mm 6 mps 735 mmHg 93%
    13:00 +7°C° 3.3 mm 6 mps 734 mmHg 94%
    14:00 +7°C° 3.3 mm 6 mps 733 mmHg 94%
    15:00 +7°C° 1.9 mm 6 mps 732 mmHg 94%
    16:00 +6°C° 1.9 mm 7 mps 731 mmHg 93%
    17:00 +6°C° 1.9 mm 7 mps 731 mmHg 93%
    18:00 +6°C° 1.7 mm 8 mps 731 mmHg 92%
    19:00 +6°C° 1.7 mm 9 mps 731 mmHg 91%
    20:00 +6°C° 1.7 mm 9 mps 732 mmHg 90%
    21:00 +6°C° 1.1 mm 9 mps 732 mmHg 89%
    22:00 +6°C° 1.1 mm 10 mps 733 mmHg 88%
    23:00 +6°C° 1.1 mm 10 mps 734 mmHg 88%

    25 September, Tuesday

    Time Temperature Precipitation Wind Pressure Humidity
    00:00 +6°C° 0.6 mm 10 mps 735 mmHg 87%
    01:00 +5°C° 0.6 mm 10 mps 736 mmHg 86%
    02:00 +5°C° 0.6 mm 10 mps 737 mmHg 84%
    03:00 +5°C° 0.3 mm 10 mps 738 mmHg 84%
    04:00 +3°C° 0.3 mm 9 mps 739 mmHg 84%
    05:00 +3°C° 0.3 mm 9 mps 740 mmHg 84%
    06:00 +3°C° 0 mm 9 mps 741 mmHg 82%
    07:00 +3°C° 0 mm 9 mps 742 mmHg 80%
    08:00 +4°C° 0 mm 8 mps 742 mmHg 79%
    09:00 +5°C° 0 mm 9 mps 743 mmHg 72%
    10:00 +6°C° 0 mm 9 mps 744 mmHg 66%
    11:00 +6°C° 0 mm 9 mps 744 mmHg 60%
    12:00 +7°C° 0 mm 9 mps 745 mmHg 56%
    13:00 +9°C° 0 mm 8 mps 745 mmHg 51%
    14:00 +9°C° 0 mm 8 mps 745 mmHg 47%
    15:00 +9°C° 0 mm 7 mps 746 mmHg 51%
    16:00 +8°C° 0 mm 6 mps 746 mmHg 55%
    17:00 +7°C° 0 mm 5 mps 746 mmHg 58%
    18:00 +6°C° 0 mm 4 mps 746 mmHg 63%
    19:00 +5°C° 0 mm 4 mps 746 mmHg 68%
    20:00 +4°C° 0 mm 3 mps 746 mmHg 73%
    21:00 +4°C° 0.1 mm 3 mps 746 mmHg 76%
    22:00 +4°C° 0.1 mm 3 mps 746 mmHg 78%
    23:00 +4°C° 0.1 mm 4 mps 746 mmHg 80%

    26 September, Wednesday

    Time Temperature Precipitation Wind Pressure Humidity
    00:00 +4°C° 0.4 mm 3 mps 746 mmHg 84%
    01:00 +4°C° 0.4 mm 3 mps 745 mmHg 87%
    02:00 +5°C° 0.4 mm 2 mps 745 mmHg 91%
    03:00 +5°C° 0.1 mm 2 mps 745 mmHg 92%
    04:00 +5°C° 0.1 mm 2 mps 746 mmHg 93%
    05:00 +6°C° 0.1 mm 1 mps 746 mmHg 94%
    06:00 +5°C° 0 mm 2 mps 747 mmHg 91%
    07:00 +6°C° 0 mm 2 mps 747 mmHg 88%
    08:00 +5°C° 0 mm 3 mps 748 mmHg 86%
    09:00 +7°C° 0 mm 3 mps 749 mmHg 76%
    10:00 +8°C° 0 mm 3 mps 750 mmHg 67%
    11:00 +10°C° 0 mm 4 mps 751 mmHg 58%
    12:00 +10°C° 0 mm 4 mps 751 mmHg 54%
    13:00 +10°C° 0 mm 4 mps 752 mmHg 51%
    14:00 +11°C° 0 mm 4 mps 752 mmHg 48%
    15:00 +10°C° 0 mm 3 mps 752 mmHg 52%
    16:00 +10°C° 0 mm 3 mps 753 mmHg 57%
    17:00 +9°C° 0 mm 2 mps 753 mmHg 62%
    18:00 +8°C° 0 mm 2 mps 753 mmHg 65%
    19:00 +7°C° 0 mm 2 mps 754 mmHg 69%
    20:00 +5°C° 0 mm 2 mps 754 mmHg 73%
    21:00 +5°C° 0 mm 2 mps 754 mmHg 75%
    22:00 +4°C° 0 mm 3 mps 754 mmHg 77%
    23:00 +4°C° 0 mm 3 mps 754 mmHg 78%
    Show more